| time (UTC) | temp F | wind direction | speed MPH | gust MPH | rain 1hr in | rain 24hr in | rain mn in | humidity % | barometer mb |
| 20260504081541 | 56 | 258 | 6.0 | 11.0 | 0.00 | 0.00 | 0.00 | 36 | 1016.4 |
| 20260504080104 | 56 | 220 | 5.0 | 9.0 | 0.00 | 0.00 | 0.00 | 38 | 1016.3 |
| 20260504044605 | 56 | 202 | 6.0 | 14.0 | 0.00 | 0.00 | 0.00 | 38 | 1016.8 |
| 20260504043033 | 56 | 205 | 8.0 | 12.0 | 0.00 | 0.00 | 0.00 | 38 | 1016.8 |
| 20260504041552 | 54 | 214 | 7.0 | 12.0 | 0.00 | 0.00 | 0.00 | 39 | 1016.8 |
| 20260504034520 | 56 | 217 | 7.0 | 11.0 | 0.00 | 0.00 | 0.00 | 35 | 1016.7 |
| 20260504033042 | 57 | 219 | 7.0 | 13.0 | 0.00 | 0.00 | 0.00 | 34 | 1016.6 |
| 20260504031603 | 57 | 229 | 9.0 | 15.0 | 0.00 | 0.00 | 0.00 | 34 | 1016.6 |
| 20260504030040 | 56 | 250 | 7.0 | 14.0 | 0.00 | 0.00 | 0.00 | 34 | 1016.6 |
| 20260504024551 | 57 | 222 | 4.0 | 11.0 | 0.00 | 0.00 | 0.00 | 35 | 1016.7 |
| 20260504023010 | 57 | 201 | 9.0 | 15.0 | 0.00 | 0.00 | 0.00 | 34 | 1016.6 |
| 20260504021539 | 57 | 196 | 8.0 | 15.0 | 0.00 | 0.00 | 0.00 | 34 | 1016.5 |
| 20260504020055 | 56 | 222 | 7.0 | 14.0 | 0.00 | 0.00 | 0.00 | 36 | 1016.4 |
| 20260504014526 | 55 | 219 | 7.0 | 12.0 | 0.00 | 0.00 | 0.00 | 38 | 1016.3 |
| 20260504013052 | 55 | 205 | 5.0 | 10.0 | 0.00 | 0.00 | 0.00 | 40 | 1016.2 |
| 20260504011516 | 55 | 204 | 5.0 | 10.0 | 0.00 | 0.00 | 0.00 | 39 | 1016.1 |
| 20260504010045 | 56 | 173 | 6.0 | 10.0 | 0.00 | 0.00 | 0.00 | 39 | 1016.1 |
| 20260504004502 | 56 | 193 | 6.0 | 11.0 | 0.00 | 0.00 | 0.00 | 38 | 1016.1 |
| 20260504003045 | 56 | 191 | 6.0 | 11.0 | 0.00 | 0.00 | 0.00 | 39 | 1015.9 |
| 20260504001625 | 56 | 164 | 5.0 | 12.0 | 0.00 | 0.00 | 0.00 | 39 | 1016.0 |
| 20260504000029 | 56 | 161 | 5.0 | 10.0 | 0.00 | 0.00 | 0.00 | 39 | 1016.0 |
| 20260503234558 | 57 | 172 | 4.0 | 9.0 | 0.00 | 0.00 | 0.00 | 39 | 1015.8 |
| 20260503233034 | 57 | 123 | 5.0 | 10.0 | 0.00 | 0.00 | 0.00 | 38 | 1015.8 |
| 20260503231550 | 58 | 163 | 3.0 | 7.0 | 0.00 | 0.00 | 0.00 | 37 | 1015.6 |
| 20260503230013 | 60 | 165 | 2.0 | 5.0 | 0.00 | 0.00 | 0.00 | 35 | 1015.7 |
| 20260503224554 | 60 | 165 | 2.0 | 7.0 | 0.00 | 0.00 | 0.00 | 35 | 1015.8 |
| 20260503223004 | 60 | 206 | 3.0 | 11.0 | 0.00 | 0.00 | 0.00 | 33 | 1015.7 |
| 20260503221527 | 61 | 240 | 5.0 | 11.0 | 0.00 | 0.00 | 0.00 | 33 | 1015.8 |
| 20260503220103 | 60 | 257 | 4.0 | 13.0 | 0.00 | 0.00 | 0.00 | 33 | 1015.9 |
| 20260503214530 | 60 | 245 | 2.0 | 6.0 | 0.00 | 0.00 | 0.00 | 35 | 1016.0 |
| 20260503213056 | 60 | 259 | 1.0 | 11.0 | 0.00 | 0.00 | 0.00 | 32 | 1015.8 |
| 20260503211504 | 60 | 231 | 3.0 | 13.0 | 0.00 | 0.00 | 0.00 | 35 | 1015.8 |
| 20260503210038 | 60 | 212 | 5.0 | 11.0 | 0.00 | 0.00 | 0.00 | 35 | 1016.0 |
| 20260503204505 | 59 | 304 | 3.0 | 17.0 | 0.00 | 0.00 | 0.00 | 36 | 1015.9 |
| 20260503203036 | 58 | 246 | 7.0 | 15.0 | 0.00 | 0.00 | 0.00 | 34 | 1016.1 |
| 20260503201558 | 58 | 279 | 8.0 | 16.0 | 0.00 | 0.00 | 0.00 | 35 | 1016.4 |
| 20260503200028 | 58 | 294 | 6.0 | 15.0 | 0.00 | 0.00 | 0.00 | 35 | 1016.6 |
| 20260503194544 | 57 | 206 | 8.0 | 13.0 | 0.00 | 0.00 | 0.00 | 36 | 1016.6 |
| 20260503193019 | 57 | 186 | 8.0 | 14.0 | 0.00 | 0.00 | 0.00 | 37 | 1016.9 |
| 20260503191539 | 56 | 323 | 7.0 | 17.0 | 0.00 | 0.00 | 0.00 | 38 | 1017.1 |
| 20260503190100 | 56 | 287 | 11.0 | 19.0 | 0.00 | 0.00 | 0.00 | 37 | 1017.3 |
| 20260503184532 | 55 | 294 | 4.0 | 15.0 | 0.00 | 0.00 | 0.00 | 40 | 1017.5 |
| 20260503183057 | 54 | 234 | 8.0 | 13.0 | 0.00 | 0.00 | 0.00 | 40 | 1017.8 |
| 20260503181523 | 54 | 235 | 7.0 | 11.0 | 0.00 | 0.00 | 0.00 | 42 | 1017.8 |
| 20260503180048 | 53 | 330 | 9.0 | 15.0 | 0.00 | 0.00 | 0.00 | 40 | 1017.9 |
| 20260503174501 | 54 | 263 | 7.0 | 14.0 | 0.00 | 0.00 | 0.00 | 42 | 1018.2 |
| 20260503173035 | 53 | 290 | 7.0 | 14.0 | 0.00 | 0.00 | 0.00 | 43 | 1018.2 |
| 20260503171501 | 52 | 294 | 5.0 | 15.0 | 0.00 | 0.00 | 0.00 | 44 | 1018.2 |